Wind_Speed
16 16 16 16 15 16 16 16 16 16 16 15 15 15 15 14 14 15 15 14 14 15 17 18 18 17 17 17 18 19 19 19 19 19 18 17 16 14 13 12 13 13 13
18 18 17 17 16 16 17 16 16 15 15 14 14 14 14 14 14 15 16 16 15 16 17 18 18 19 19 19 20 21 21 22 21 21 20 19 18 17 15 14 13 13 12
19 19 18 18 17 17 17 16 15 15 15 14 14 13 12 13 14 16 17 17 17 16 16 17 18 18 19 20 21 22 23 23 23 22 22 22 21 20 18 17 15 15 14
20 19 19 19 18 18 17 16 15 15 15 14 14 13 12 13 15 17 18 19 18 18 17 17 17 18 19 20 21 23 24 25 25 24 25 24 24 23 21 20 19 18 17
20 20 20 20 19 18 17 16 15 14 14 14 14 14 13 13 15 16 18 19 20 19 19 19 20 20 21 22 23 24 25 26 26 26 27 26 26 26 25 24 23 23 22
21 20 20 21 20 19 17 16 14 14 14 14 14 14 14 15 15 16 17 19 20 21 22 22 23 23 24 24 25 25 26 27 27 27 27 27 27 28 29 29 28 27 27
22 21 21 21 21 19 18 15 14 13 14 14 14 15 15 16 16 17 17 18 20 21 23 24 25 26 27 27 27 28 28 28 28 28 28 28 28 29 31 32 33 33 32
21 21 21 21 21 20 19 16 14 13 14 14 15 16 16 17 18 19 19 20 21 21 23 24 25 26 27 28 28 29 29 30 30 30 31 31 32 32 34 35 36 37 37
20 21 22 23 22 22 20 17 15 14 14 14 15 16 17 18 19 20 21 22 23 23 24 25 26 26 27 28 29 29 30 31 31 32 34 35 35 36 37 38 39 40 41
20 21 23 23 23 23 21 19 17 16 15 14 14 15 17 18 18 19 20 21 23 24 25 26 27 28 29 29 31 32 32 33 34 35 36 37 38 39 40 41 42 42 43
21 22 23 23 24 23 22 21 19 18 17 15 15 16 17 17 18 19 19 20 20 22 23 24 25 27 28 30 31 33 34 35 36 37 38 40 41 42 43 43 43 43 42
23 22 23 23 24 23 23 23 21 20 19 18 17 18 18 19 19 20 20 20 21 21 22 23 24 26 28 30 32 33 35 36 37 39 40 41 41 42 42 41 39 38 37
24 23 23 23 24 24 24 24 23 22 21 21 21 21 22 22 22 23 23 24 24 24 25 26 27 28 30 31 33 35 36 38 39 40 40 41 40 40 39 38 37 35 34
25 24 23 24 25 25 25 25 24 24 24 24 24 24 25 26 26 26 27 27 27 28 28 29 31 32 33 34 35 37 38 38 39 39 39 39 39 38 38 38 37 37 37
26 25 23 23 25 25 25 26 25 25 25 25 25 25 27 28 29 30 31 31 32 32 32 32 34 35 36 37 37 38 38 38 39 38 38 38 38 38 39 39 40 40 40
26 26 25 25 25 24 24 24 25 25 25 25 25 26 28 30 32 33 34 35 35 35 35 36 36 37 38 39 39 39 39 39 39 39 39 39 40 40 41 42 42 43 44
26 25 26 26 25 24 22 23 23 24 24 25 25 26 28 30 31 32 33 34 35 36 37 38 39 39 39 40 40 40 40 40 40 41 41 42 42 43 44 45 45 46 47
26 25 26 26 25 23 22 21 22 22 23 24 25 27 28 30 31 31 31 31 32 34 36 37 39 40 41 41 41 41 41 42 42 42 43 44 45 46 47 48 49 51 52
26 26 26 26 24 23 22 21 21 22 23 24 26 28 30 30 30 30 31 32 33 35 37 38 40 41 41 42 42 42 42 42 43 44 45 46 48 49 50 52 54 55 57
27 27 26 25 24 23 22 22 23 23 24 26 28 30 30 31 31 31 32 34 36 38 40 41 42 43 43 42 42 42 43 43 44 46 47 49 51 53 55 57 60 62 64
28 27 26 25 24 24 23 24 24 25 26 28 30 30 31 31 33 34 36 38 39 41 42 42 43 44 44 43 43 43 44 45 47 49 52 55 57 60 62 64 66 68 69
28 27 26 26 25 25 25 25 26 27 28 30 31 31 32 34 35 37 39 40 41 42 42 42 42 43 44 44 45 45 46 48 51 54 57 60 63 65 67 68 70 71 72
28 27 26 26 26 27 27 27 28 29 31 31 32 33 34 36 38 40 42 42 42 42 42 43 43 43 45 48 50 52 54 55 56 57 60 63 65 67 68 69 71 72 73
28 27 27 27 28 28 28 29 30 31 32 32 33 35 37 39 41 42 42 42 42 43 43 44 45 46 49 51 55 59 62 65 67 66 64 64 65 66 68 70 72 73 75
28 27 27 27 28 29 29 30 31 32 33 34 35 37 39 41 42 43 42 42 43 44 45 46 48 51 54 57 60 63 66 69 72 74 73 71 68 67 68 70 73 76 79
28 28 27 27 28 29 30 31 32 33 34 35 37 39 41 42 43 43 43 44 44 46 47 49 52 55 58 62 65 67 69 70 71 73 75 75 74 73 73 75 78 82 86
Wind_Direction
269 274 277 281 287 292 296 298 299 298 296 296 294 292 288 283 276 269 266 263 262 261 260 258 255 254 254 256 260 264 267 269 270 270 270 270 271 273 279 286 295 298 295
266 271 276 280 285 289 293 294 295 294 292 290 289 288 284 277 269 263 260 259 259 261 261 258 254 254 255 257 260 263 265 266 268 269 268 268 268 269 272 277 285 292 294
264 269 274 279 281 284 287 289 291 291 289 286 285 284 279 272 264 258 256 255 257 260 260 258 254 254 254 257 261 264 266 267 269 269 268 267 267 267 270 273 278 282 285
261 265 270 274 274 277 281 284 287 289 288 285 282 278 275 268 262 259 256 254 256 258 260 259 257 257 258 260 262 265 267 267 268 267 267 266 266 266 268 270 273 276 277
261 263 267 268 268 270 273 278 284 287 287 283 279 275 272 269 264 261 259 257 256 258 259 260 260 261 263 264 266 267 267 267 266 265 265 265 266 267 268 270 272 274 275
262 263 265 264 263 263 265 271 279 284 284 280 276 273 272 271 269 266 263 259 258 259 260 261 262 264 266 267 268 269 269 268 267 266 266 266 266 267 269 271 271 273 274
263 265 265 262 259 256 258 263 271 277 278 276 275 273 272 271 270 270 268 265 264 264 265 266 267 269 270 271 271 272 271 270 270 270 269 269 269 268 270 271 272 273 273
263 266 266 261 256 252 253 257 262 269 273 275 276 277 275 274 272 272 271 270 270 269 270 271 272 272 272 273 274 274 274 273 273 273 273 272 271 271 271 272 273 273 273
263 266 265 261 255 250 249 251 254 261 268 273 276 279 279 278 278 277 276 275 275 275 275 274 274 274 274 275 275 276 276 276 275 275 275 274 274 274 274 274 274 273 273
263 265 265 260 254 249 247 247 250 255 263 269 276 280 282 283 283 283 282 280 279 278 277 276 276 275 275 276 276 276 277 277 278 277 277 277 278 278 278 278 276 275 273
265 267 265 260 253 250 246 245 248 253 259 266 274 280 286 288 289 289 287 286 285 283 282 281 280 279 279 278 278 279 279 279 279 279 279 280 281 282 281 280 278 276 274
266 268 266 260 253 251 248 246 248 253 257 265 273 280 286 291 292 292 290 289 288 288 288 288 287 286 285 283 283 282 282 282 282 282 282 282 283 283 283 282 280 279 277
263 265 263 259 254 253 252 249 249 254 260 267 274 279 285 289 293 294 294 293 292 292 291 291 291 290 290 289 288 287 285 285 284 284 284 284 284 284 283 282 282 280 278
261 263 260 256 253 254 255 254 254 257 262 268 274 279 284 288 291 292 292 291 290 290 290 290 291 293 294 293 292 291 290 288 286 285 284 284 283 282 281 280 279 278 276
259 262 258 254 252 252 254 255 256 260 265 271 277 282 285 288 290 291 290 289 288 289 290 290 291 293 295 295 294 292 290 288 286 284 283 281 280 279 278 277 276 276 276
255 259 258 255 254 253 253 254 255 260 266 273 278 283 286 289 290 290 289 288 287 288 289 290 291 293 294 295 294 293 291 288 286 284 283 281 280 279 278 277 276 274 274
252 255 256 254 254 253 253 254 257 259 263 270 276 281 286 289 291 290 290 288 288 287 288 289 290 292 293 293 293 292 290 288 286 285 284 283 282 281 279 278 277 275 274
250 253 253 252 251 252 254 255 258 260 265 272 278 284 288 291 293 293 292 291 289 289 289 289 290 291 292 292 292 291 289 288 287 286 285 284 283 282 281 280 278 277 277
249 252 252 249 249 251 253 255 259 264 271 277 283 287 290 292 293 293 293 292 291 291 291 292 292 292 292 291 290 289 287 286 285 285 284 283 283 282 282 282 281 281 280
250 252 252 249 248 250 252 255 261 268 275 281 286 289 290 291 292 293 293 293 293 294 294 294 293 292 291 290 289 288 287 286 285 285 286 286 286 286 286 286 285 285 284
249 252 253 249 248 249 252 257 264 272 278 284 288 289 289 290 292 293 294 294 295 295 295 295 294 293 292 291 290 289 290 290 291 291 292 292 292 292 291 291 290 289 288
248 252 253 250 249 251 255 260 267 274 279 284 287 288 289 291 293 294 295 295 296 296 296 295 295 294 293 292 292 290 290 292 293 294 295 295 294 294 293 292 292 290 289
245 250 251 251 252 254 257 262 269 275 280 284 286 288 290 292 294 295 296 297 297 297 297 297 296 296 296 296 295 295 294 293 292 293 294 294 294 293 293 292 291 290 289
242 247 250 251 253 255 258 263 269 275 280 283 286 289 291 293 295 296 297 298 298 298 298 298 297 297 298 298 298 298 298 298 297 295 294 294 293 293 292 292 291 290 290
240 245 249 252 254 256 259 264 269 275 279 283 287 289 292 294 296 297 298 298 298 298 298 298 299 299 299 299 299 299 299 299 299 298 297 296 295 295 295 294 294 293 292
240 244 249 252 254 256 260 264 269 275 279 283 287 290 293 295 296 297 298 298 298 298 298 298 299 299 299 299 300 300 300 299 299 299 298 297 297 297 297 297 297 296 295
Height
5855 5855 5855 5855 5855 5854 5854 5853 5853 5852 5851 5851 5851 5850 5850 5850 5850 5850 5850 5850 5849 5849 5849 5849 5849 5849 5849 5849 5849 5848 5848 5847 5846 5846 5845 5844 5842 5841 5839 5838 5836 5835 5833
5852 5852 5853 5852 5852 5852 5851 5851 5850 5850 5849 5848 5848 5848 5848 5848 5847 5847 5847 5846 5846 5846 5846 5846 5845 5845 5845 5845 5844 5844 5844 5843 5843 5842 5841 5840 5839 5838 5836 5835 5834 5832 5831
5849 5849 5850 5850 5849 5849 5848 5848 5848 5847 5846 5846 5845 5845 5845 5845 5844 5844 5844 5843 5843 5843 5843 5842 5842 5841 5841 5840 5840 5840 5839 5839 5839 5838 5837 5836 5835 5834 5833 5832 5831 5830 5829
5846 5846 5846 5846 5846 5846 5845 5845 5845 5845 5844 5843 5843 5842 5842 5842 5841 5841 5841 5840 5840 5840 5839 5839 5838 5837 5837 5836 5836 5835 5835 5834 5834 5833 5833 5832 5831 5830 5829 5828 5827 5826 5825
5842 5843 5843 5843 5843 5843 5843 5843 5842 5842 5842 5841 5840 5840 5839 5839 5838 5838 5838 5837 5837 5836 5836 5835 5834 5834 5833 5833 5832 5831 5830 5829 5829 5828 5828 5827 5826 5825 5825 5824 5823 5822 5821
5838 5839 5839 5839 5839 5839 5840 5840 5840 5840 5839 5839 5838 5837 5837 5836 5836 5835 5834 5834 5833 5833 5832 5831 5831 5830 5829 5829 5828 5827 5826 5825 5824 5823 5823 5822 5822 5821 5820 5819 5818 5817 5816
5834 5835 5835 5835 5836 5836 5837 5837 5837 5837 5837 5836 5835 5835 5834 5834 5833 5833 5832 5831 5830 5829 5828 5828 5827 5826 5826 5825 5824 5822 5821 5820 5819 5818 5818 5817 5817 5816 5814 5813 5812 5811 5810
5830 5831 5831 5831 5832 5832 5833 5834 5835 5834 5834 5833 5833 5832 5832 5831 5831 5830 5829 5828 5827 5826 5825 5824 5823 5822 5821 5820 5819 5818 5817 5815 5814 5813 5812 5811 5810 5809 5808 5807 5805 5804 5802
5826 5827 5827 5828 5828 5829 5830 5831 5832 5831 5831 5830 5830 5829 5829 5828 5828 5827 5826 5825 5823 5822 5821 5820 5819 5818 5817 5815 5814 5812 5811 5809 5808 5806 5805 5804 5803 5802 5800 5799 5797 5795 5794
5823 5823 5823 5823 5824 5825 5826 5827 5828 5828 5828 5827 5827 5827 5826 5825 5824 5823 5822 5821 5819 5818 5816 5815 5814 5812 5811 5809 5808 5806 5804 5803 5801 5799 5798 5796 5795 5793 5791 5790 5788 5786 5785
5818 5819 5819 5819 5820 5821 5822 5823 5824 5824 5824 5824 5824 5823 5823 5822 5820 5819 5818 5816 5814 5813 5811 5810 5808 5806 5805 5803 5801 5799 5797 5795 5793 5791 5789 5788 5786 5784 5782 5780 5778 5776 5775
5814 5814 5814 5815 5816 5817 5818 5819 5820 5821 5821 5821 5820 5820 5819 5818 5816 5815 5813 5811 5810 5808 5806 5804 5802 5801 5799 5797 5794 5792 5790 5788 5785 5783 5781 5779 5777 5775 5772 5770 5769 5767 5765
5809 5810 5810 5810 5811 5812 5813 5815 5816 5817 5817 5817 5816 5816 5815 5813 5812 5810 5808 5807 5805 5803 5801 5799 5797 5795 5793 5790 5788 5785 5782 5780 5777 5775 5772 5770 5768 5766 5764 5762 5760 5758 5757
5804 5806 5806 5806 5807 5808 5809 5810 5812 5813 5813 5813 5812 5811 5810 5809 5807 5805 5804 5802 5800 5798 5796 5794 5791 5789 5786 5783 5781 5778 5774 5771 5769 5766 5764 5761 5759 5757 5755 5753 5751 5750 5748
5799 5800 5802 5802 5803 5804 5805 5806 5807 5808 5808 5808 5807 5806 5805 5803 5802 5800 5798 5796 5794 5792 5790 5788 5785 5783 5780 5777 5773 5770 5767 5764 5761 5758 5756 5753 5751 5749 5747 5745 5743 5741 5739
5794 5795 5796 5797 5799 5800 5801 5802 5803 5804 5803 5802 5802 5801 5799 5798 5796 5793 5791 5789 5788 5786 5784 5781 5779 5776 5773 5770 5766 5763 5759 5756 5753 5750 5748 5745 5742 5740 5738 5736 5734 5732 5730
5788 5790 5790 5792 5793 5795 5797 5798 5798 5799 5798 5798 5797 5796 5794 5792 5789 5787 5785 5783 5781 5778 5776 5774 5771 5768 5765 5762 5759 5755 5752 5748 5745 5742 5739 5737 5734 5731 5729 5727 5724 5722 5720
5783 5784 5785 5786 5788 5790 5791 5792 5793 5793 5793 5792 5791 5790 5788 5785 5783 5780 5778 5776 5774 5771 5769 5766 5763 5760 5757 5753 5750 5746 5743 5740 5736 5733 5730 5727 5724 5722 5719 5716 5713 5711 5708
5776 5778 5780 5781 5783 5784 5786 5786 5787 5787 5786 5786 5785 5783 5781 5778 5776 5774 5771 5769 5767 5764 5761 5758 5754 5751 5748 5745 5741 5738 5734 5730 5727 5724 5720 5717 5713 5710 5707 5704 5701 5697 5694
5770 5772 5773 5775 5777 5779 5780 5780 5781 5780 5780 5779 5778 5776 5774 5771 5769 5767 5764 5762 5759 5756 5753 5749 5745 5742 5739 5736 5732 5729 5724 5721 5717 5713 5709 5705 5701 5698 5694 5690 5686 5682 5678
5764 5766 5767 5769 5771 5773 5774 5774 5774 5774 5773 5772 5771 5769 5767 5764 5762 5760 5757 5754 5751 5747 5744 5740 5735 5731 5728 5725 5722 5719 5715 5710 5707 5702 5697 5693 5688 5684 5678 5674 5669 5664 5660
5758 5759 5761 5763 5765 5766 5767 5768 5768 5768 5767 5766 5764 5762 5759 5757 5755 5752 5749 5745 5742 5738 5734 5730 5726 5722 5718 5714 5711 5708 5706 5703 5697 5691 5685 5679 5674 5669 5663 5657 5651 5646 5640
5752 5754 5755 5757 5758 5760 5761 5761 5761 5761 5760 5758 5756 5754 5752 5750 5747 5743 5740 5736 5732 5728 5724 5720 5716 5712 5707 5702 5698 5694 5690 5688 5686 5683 5676 5668 5660 5654 5647 5641 5634 5627 5621
5746 5748 5750 5751 5752 5753 5754 5755 5754 5754 5752 5751 5749 5747 5744 5741 5738 5734 5730 5726 5722 5718 5714 5710 5705 5701 5697 5692 5686 5679 5673 5667 5662 5662 5662 5654 5646 5639 5631 5623 5615 5607 5600
5740 5742 5743 5745 5746 5747 5748 5748 5747 5746 5745 5743 5741 5739 5736 5733 5729 5725 5721 5717 5712 5708 5704 5699 5695 5690 5685 5679 5673 5667 5660 5652 5643 5636 5635 5633 5627 5620 5612 5604 5595 5586 5577
5734 5736 5737 5739 5740 5740 5741 5740 5740 5739 5737 5735 5733 5730 5727 5723 5719 5716 5712 5707 5703 5699 5694 5689 5684 5678 5672 5665 5658 5651 5644 5636 5629 5620 5614 5609 5604 5598 5591 5582 5572 5561 5551